CNH660 HRYR-HBBA

Flight info

Callsign CNH660
Flight time N/A
Altitude 14000
Route GADBO DCT XABOB DCT GAVDA
Aircraft IL76/H-SDFGHIM1RTUWXY/LB1

Departure

Time 2026-04-26 07:04
Airport Kigali International Airport (HRYR)

Arrival

Time N/A
Airport Bujumbura Melchior Ndadaye International Airport (HBBA)
Time Latitude Longitude Altitude Speed Heading
2026-04-26 06:58 -1.97098 30.13886 4892 ft 0 kts
2026-04-26 07:02 -1.97084 30.13876 4884 ft 5 kts 284°
2026-04-26 07:02 -1.97120 30.13891 4881 ft 18 kts 72°
2026-04-26 07:03 -1.97017 30.13817 4886 ft 31 kts 303°
2026-04-26 07:03 -1.96839 30.13815 4887 ft 40 kts 94°
2026-04-26 07:03 -1.96934 30.14345 4868 ft 113 kts 102°
2026-04-26 07:03 -1.97092 30.15302 4896 ft 159 kts 100°
2026-04-26 07:04 -1.97279 30.16348 5500 ft 147 kts 106°
2026-04-26 07:04 -1.97871 30.17167 5823 ft 160 kts 150°
2026-04-26 07:04 -1.98976 30.16881 5891 ft 186 kts 221°
2026-04-26 07:04 -1.99537 30.15741 6343 ft 203 kts 251°
2026-04-26 07:05 -2.00062 30.14265 6593 ft 247 kts 248°
2026-04-26 07:05 -2.00665 30.12684 7944 ft 235 kts 247°
2026-04-26 07:05 -2.01127 30.11447 9743 ft 189 kts 247°
2026-04-26 07:05 -2.01695 30.09949 9221 ft 268 kts 247°
2026-04-26 07:06 -2.02563 30.08337 10057 ft 273 kts 229°
2026-04-26 07:06 -2.04232 30.07158 9812 ft 322 kts 198°
2026-04-26 07:06 -2.06546 30.06631 9951 ft 356 kts 188°
2026-04-26 07:06 -2.09127 30.06334 10092 ft 387 kts 184°
2026-04-26 07:07 -2.10686 30.06216 10280 ft 401 kts 182°
2026-04-26 07:07 -2.11419 30.06167 10445 ft 404 kts 182°
2026-04-26 07:07 -2.13716 30.06014 11080 ft 411 kts 182°
2026-04-26 07:08 -2.16572 30.05830 11896 ft 416 kts 182°
2026-04-26 07:08 -2.19503 30.05641 12649 ft 423 kts 182°
2026-04-26 07:08 -2.22462 30.05458 13382 ft 429 kts 182°
2026-04-26 07:08 -2.25435 30.05272 14122 ft 433 kts 182°
2026-04-26 07:09 -2.28464 30.05081 14822 ft 437 kts 183°
2026-04-26 07:09 -2.31465 30.04383 15397 ft 445 kts 204°
2026-04-26 07:09 -2.34009 30.02643 15999 ft 450 kts 219°
2026-04-26 07:09 -2.36487 30.00658 16524 ft 455 kts 219°
2026-04-26 07:10 -2.43938 29.94540 18126 ft 468 kts 219°
2026-04-26 07:11 -2.49022 29.90379 19073 ft 477 kts 219°
2026-04-26 07:11 -2.51605 29.88266 19519 ft 481 kts 219°
2026-04-26 07:11 -2.54204 29.86137 19992 ft 484 kts 219°
2026-04-26 07:11 -2.56826 29.83989 20411 ft 488 kts 219°
2026-04-26 07:12 -2.59472 29.81823 20812 ft 491 kts 219°
2026-04-26 07:12 -2.62106 29.79664 21228 ft 494 kts 219°
2026-04-26 07:12 -2.64777 29.77476 21622 ft 496 kts 219°
2026-04-26 07:12 -2.67451 29.75285 21981 ft 499 kts 219°
2026-04-26 07:13 -2.70149 29.73074 22271 ft 503 kts 219°
2026-04-26 07:13 -2.72864 29.70850 22579 ft 504 kts 219°
2026-04-26 07:13 -2.75576 29.68629 22852 ft 506 kts 219°
2026-04-26 07:13 -2.78236 29.66445 21885 ft 490 kts 219°
2026-04-26 07:14 -2.80819 29.64478 19136 ft 454 kts 210°
2026-04-26 07:14 -2.83242 29.62989 19798 ft 381 kts 213°
2026-04-26 07:14 -2.85376 29.61596 19518 ft 359 kts 212°
2026-04-26 07:14 -2.87431 29.60272 19285 ft 345 kts 212°
2026-04-26 07:15 -2.89452 29.58973 19053 ft 335 kts 212°
2026-04-26 07:15 -2.91372 29.57741 18733 ft 322 kts 211°
2026-04-26 07:15 -2.93217 29.56553 18485 ft 304 kts 212°
2026-04-26 07:15 -2.94969 29.55435 18251 ft 292 kts 211°
2026-04-26 07:16 -2.96667 29.54350 18026 ft 293 kts 211°
2026-04-26 07:16 -2.98362 29.53271 18525 ft 305 kts 211°
2026-04-26 07:16 -3.00290 29.52044 18442 ft 340 kts 212°
2026-04-26 07:16 -3.02364 29.50721 18460 ft 369 kts 212°
2026-04-26 07:17 -3.04621 29.49281 18450 ft 397 kts 212°
2026-04-26 07:17 -3.07034 29.47742 18427 ft 422 kts 212°
2026-04-26 07:17 -3.09560 29.46130 18397 ft 444 kts 212°